Skip Page Navigation
NASA JPL Caltech
NASA Logo - Jet Propulsion Laboratory + View the NASA Portal
+ Center for Near-Earth Object Studies
JPL Home Earth Solar System Stars & Galaxies Technology
JPL Solar System Dynamics
BODIES ORBITS EPHEMERIDES TOOLS PHYSICAL DATA DISCOVERY FAQ SITE MAP
JPL Small-Body Database Browser
Search: [ help ]  
150593 (2000 WM129)
Classification: Main-belt Asteroid          SPK-ID: 2150593
Ephemeris | Orbit Diagram | Orbital Elements | Mission Design | Physical Parameters | Discovery Circumstances ]

[ show orbit diagram ]
Orbital Elements at Epoch 2459200.5 (2020-Dec-17.0) TDB
Reference: JPL 19 (heliocentric ecliptic J2000)
 Element Value Uncertainty (1-sigma)   Units 
e .06145407880228486 4.2043e-08  
a 3.035285055322298 2.744e-08 au
q 2.848754408345124 1.374e-07 au
i 8.943703664879179 3.9158e-06 deg
node 245.1932088357432 2.8086e-05 deg
peri 182.7670438462453 5.1432e-05 deg
M 273.9712797347564 4.6314e-05 deg
tp 2459662.071105500219
(2022-Mar-23.57110550)
0.00025201 TDB
period 1931.513074561115
5.29
2.6192e-05
7.171e-08
d
yr
n .1863823780130509 2.5274e-09 deg/d
Q 3.221815702299472 2.9126e-08 au
  Orbit Determination Parameters
   # obs. used (total)      546  
   data-arc span      7345 days (20.11 yr)  
   first obs. used      2000-10-25  
   last obs. used      2020-12-04  
   planetary ephem.      DE431  
   SB-pert. ephem.      SB431-N16  
   condition code      0  
   norm. resid. RMS      .54449  
   source      ORB  
   producer      Otto Matic  
   solution date      2021-Feb-24 10:39:43  

Additional Information
 Earth MOID = 1.86207 au 
 Jupiter MOID = 2.04672 au 
 T_jup = 3.220 
[ show covariance matrix ]

Ephemeris | Orbit Diagram | Orbital Elements | Mission Design | Physical Parameters | Discovery Circumstances ]

Physical Parameter Table
Parameter Symbol Value Units Sigma Reference Notes
absolute magnitude H 15.10   n/a E2021B55  

150593 (2000 WM129)          Discovered 2000-Nov-19 by Spacewatch at Kitt Peak
Reference: 20070303/Numbers.arcLast Updated: 2007-03-07
Ephemeris | Orbit Diagram | Orbital Elements | Mission Design | Physical Parameters | Discovery Circumstances ]
ABOUT SSD CREDITS/AWARDS PRIVACY/COPYRIGHT GLOSSARY LINKS
FirstGov 2021-Apr-13 08:38 UT
(server date/time)  
NASA Home Page
Site Manager:   Ryan S. Park
Webmaster  Alan B. Chamberlin